Погода в Теджене

Погода в Теджене : погода сейчас, прогноз погоды и архив. Всё, что Вы хотите узнать о погоде в Теджене!

Хотите узнать прогноз погоды в Теджене? Тогда Вам сюда: Погода в Теджене

Поиск расширенной информации на нашем сайте:

Другие новости

Новости СМИ2

Главная страница сайта

Новости сайта

03.07.2017

Напоминаем, что на нашем специализированном сайте Метеоцентр.Азия вы можете получить высокодетализированные автоматические прогнозы погоды по пунктам России, СНГ и мира в авиационном формате (включающие направление и скорость ветра, видимость, явления погоды, количество и форму облачности, нижнюю и верхнюю границу облачности).


Погода в Теджене - сегодня

Время (UTC), дата Ветер
(°,м/с) 
Видим.   Явления Облачность Т
(°С)
Тd
(°С)
f(%) Тe
(°С)
Pmin
(гПа)
dP
(гПа)
Po
(мм)
O2
(г/м3)
Тmin Tmax R s Состояние
почвы
12 17.02.18 110 (В) 10 км    8/0 средняя, верхняя 
[Ac trans|Cs]
+10.4 +0.6 51 +9  1026.4  -2.1  753  292           
15 17.02.18 070 (В) 10 км    9/9 1000 м 
[Sc]
+7.6 +1.5 65 +7  1026.3  -0.3  752  295    +11.2       
18 17.02.18 070 (В) 10 км    9/9 1000 м 
[Sc]
+6.6 +1.4 69 +8  1026.4  752  296    +11.2       
21 17.02.18 090 (В) 10 км    9/9 1000 м 
[Sc]
+6.4 +1.1 69 +7  1025.1  -1.3  752  296           
00 18.02.18 080 (В) 10 км  слаб. ливневой дождь  10/10 600 м кучево-дожд. 
[Cb cap]
+5.6 +2.9 83 +6  1023.5  -1.6  750  296           
03 18.02.18 060 (СВ) 10 км  в посл. час ливневой дождь  9/9 600 м 
[Sc]
+5.4 +2.2 80 +6  1023.6  0.1  750  296      0.3     
06 18.02.18 100 (В) 10 км    8/0 верхняя 
[Cs]
+8.6 +2.5 65 +7  1023.3  -0.1  750  293  +5.2    0.3     
09 18.02.18 130 (ЮВ) 10 км    9/0 верхняя 
[Cs]
+14 +3 47 +13  1019.3  -3.4  748  286           
12 18.02.18 110 (В) 10 км    9/0 средняя, верхняя 
[Ac cuf|Cs]
+15.3 +1.9 40 +15  1016.8  -2.4  746  284           
15 18.02.18 080 (В) 10 км    3/0 верхняя 
[Cs]
+11.4 +2.9 56 +11  1016.3  -0.8  745  288    +16       
18 18.02.18 100 (В) 10 км    10/0 верхняя 
[Cs]
+9.6 +1.9 59 +10  1015.8  -0.6  745  290    +16       
21 18.02.18 090 (В) 10 км    10/0 верхняя 
[Cs]
+8.1 +0.2 57 +7  1013.2  -2.7  743  291           
00 19.02.18 070 (В) 10 км    10/10 1000 м 
[Sc]
+8.8 -0.2 53 +9  1010.9  -2.2  741  289           
03 19.02.18 тихо ()   10 км    10/10 600 м 
[Sc]
+8.8 +1.9 62 +9  1011.3  0.5  750  293           
06 19.02.18 330 (СЗ) 10 км    10/10 1000 м 
[St]
+9.4 +1.7 59 +9  1012.4  1.1  742  289  +7.7         
09 19.02.18 310 (СЗ) 10 км    10/0 средняя, верхняя 
[Ac cuf|Cs]
+10.8 +0.6 49 +9  1001.6  0.3  743  288           
12 19.02.18 310 (СЗ) 10 км    10/0 средняя, верхняя 
[Ac trans|Cc]
+11.6 +2.1 52 +10  1014.5  1.9  744  287           
15 19.02.18 320 (СЗ) 10 км  в посл. час ливневой дождь  10/10 600 м кучево-дожд. 
[Cb cap]
+9.3 +5.3 76 +9  1016.2  1.5  745  290    +12.2  0.0     
18 19.02.18 300 (СЗ) 4000 м  дымка{ливн. осадки}  10/10 600 м кучево-дожд. 
[Cb cap]
+7.9 +6.4 90 +7  1016.9  0.7  746  291    +12.2  0.0     
21 19.02.18 290 (З) 4000 м  слаб. ливневой дождь  10/10 600 м кучево-дожд. 
[Cb cap]
+7.8 +6.2 90 +7  1017.1  0.1  746  291           
00 20.02.18 300 (СЗ) 4000 м  дымка{ливн. осадки}  10/10 600 м кучево-дожд. 
[Cb cap]
+7.4 +6.1 91 +7  1017.1  -0.1  746  292           
03 20.02.18 150 (ЮВ) 10 км    ясно 
-3 -6.4 77 -4  1031.4  0.3             
06 20.02.18 320 (СЗ) 10 км    8/0 
[Cu Sc]
+3.5 -0.6 74 +3  1031.6  2.2  756  301  -0.6         
09 20.02.18 310 (СЗ) 4000 м  слаб. ливневой дождь  10/10 600 м кучево-дожд. 
[Cb cap]
+6.4 +4.1 85 +6  1021.7  0.7  749  294           
12 20.02.18 350 (С) 10 км  {ливн. осадки}  10/10 600 м кучево-дожд. 
[Cb cap]
+7.4 +4.1 80 +7  1021.8  0.2  749  293           
Время (UTC), дата Ветер
(°,м/с) 
Видим.   Явления Облачность Т
(°С)
Тd
(°С)
f(%) Тe
(°С)
Pmin
(гПа)
dP
(гПа)
Po
(мм)
O2
(г/м3)
Тmin Tmax R s Состояние
почвы

Для получения пояснительной информации подведите курсор к названию столбца.

ПОГОДА в Теджене - архив

Всё, что Вы хотите узнать о погоде в Теджене - удобно и подробно!

Выберите нужную дату (начиная с 1 января 2015* года) и нажмите кнопку "Найти".
Будут отображены архивные сводки погоды по пункту Теджен, начиная с указанной даты.


Отображать данные в формате CSV (для использования в таблицах Excel)


Внимание! Наш архив погоды предназначен исключительно для личного некоммерческого использования в познавательных целях. Если Вам необходимы официальные справки о состоянии погоды (для производственных, юридических, коммерческих и т.п. целей), обращайтесь в органы Росгидромета.

*Примечание: данная дата относится к архиву по метеостанциям СССР (Россия, СНГ, Балтия).
Архив по метеостанциям Зарубежной Европы и Азии (кроме Китая) хранится 10 дней, по другим регионам земного шара (Китай, Африка, Америка, Австралия, Океания) - 1 день.

Теджен - район местоположения метеостанции


Название, широта, долгота, высота метеостанции:
Теджен 37.4°ш. 60.5°д. 186 м над ур. моря [Туркменистан]

Дополнительная информация

В oтличие oт бoльшинства пoгoдных сайтoв мы публикуем пoдрoбную метеoинфoрмацию в детальнoм прoфессиoнальнoм фoрмате.

Характеристики температуры и влажнoсти вoздуха измеряются на высoте 2 м в тени вдали oт зданий и деревьев.
Скoрoсть ветра измеряется на высoте 10 м (на урoвне рoста челoвека скoрoсть ветра ниже в 1.5-2 раза). Если метеoстанция нахoдится в гoрoде или в лесу, тo скoрoсть ветра занижена на 2-4 м/с пo сравнению с oткрытым местoм. Скoрoсть ветра над акватoриями крупных рек и oзёр, а также на вершинах хoлмoв на 2-5 м/с выше, чем в oбычных услoвиях.
Атмoсфернoе давление в разных тoчках местнoсти мoжет значительнo oтличаться oт давления на метеoстанции, в зависимoсти oт услoвий рельефа (при пoдъёме на 10 м давление пoнижается примернo на 1 мм рт.ст.).